Date String (YYYY-MM-DD hh:mm:ss) UTC,Instrument flags,Ambient pressure (hPa),Sample flow (lpm),Bypass flow (lpm),Sample temperature (°C),Ambient temperature (°C),ASC tube jacket temperature (°C),LED temperature (°C),Box temperature (°C),Sample RH (%),Span deviation,Mass concentration (μg/m³),Mass concentration (μg/m³),Mass concentration (μg/m³)
DateTimeUTC,F1_M11,P_M11,Q1_M11,Q2_M11,T1_M11,T2_M11,T3_M11,T4_M11,T5_M11,U1_M11,ZSPAN_M11,X0_M11,X2_M11,X1_M11
2022-09-24 06:00:00,,0829.6,5.00,0.00,30.3,29.0,00.0,39.0,32.1,10.7,0000.0,0005.09,0002.08,0001.73
2022-09-24 06:01:00,,0829.6,5.00,0.00,30.3,29.0,00.0,39.0,32.2,10.7,0000.0,0003.96,0002.12,0001.73
2022-09-24 06:02:00,,0829.6,5.01,0.00,30.3,29.0,00.0,39.1,32.2,10.6,0000.0,0004.40,0002.18,0001.72
2022-09-24 06:03:00,,0829.6,4.99,0.00,30.4,29.1,00.0,39.1,32.2,10.6,0000.0,0004.67,0002.20,0001.73
2022-09-24 06:04:00,,0829.5,4.99,0.00,30.4,29.1,00.0,39.1,32.2,10.5,0000.0,0004.49,0002.16,0001.72
2022-09-24 06:05:00,,0829.5,5.02,0.00,30.4,29.1,00.0,39.1,32.2,10.5,0000.0,0004.41,0002.14,0001.73
2022-09-24 06:06:00,,0829.5,5.00,0.00,30.4,29.1,00.0,39.1,32.3,10.5,0000.0,0004.30,0002.15,0001.73
2022-09-24 06:07:00,,0829.6,5.00,0.00,30.4,29.1,00.0,39.1,32.3,10.4,0000.0,0004.37,0002.17,0001.73
2022-09-24 06:08:00,,0829.6,5.00,0.00,30.4,29.1,00.0,39.1,32.3,10.6,0000.0,0004.05,0002.19,0001.73
2022-09-24 06:09:00,,0829.6,5.01,0.00,30.4,29.1,00.0,39.2,32.3,10.8,0000.0,0004.00,0002.20,0001.73
2022-09-24 06:10:00,,0829.6,5.00,0.00,30.5,29.1,00.0,39.2,32.3,10.7,0000.0,0004.03,0002.21,0001.74
2022-09-24 06:11:00,,0829.7,4.99,0.00,30.5,29.1,00.0,39.2,32.3,10.7,0000.0,0004.10,0002.24,0001.74
2022-09-24 06:12:00,,0829.8,5.01,0.00,30.5,29.1,00.0,39.2,32.3,10.9,0000.0,0004.08,0002.23,0001.75
2022-09-24 06:13:00,,0829.8,5.01,0.00,30.5,29.2,00.0,39.2,32.3,10.9,0000.0,0003.67,0002.18,0001.76
2022-09-24 06:14:00,,0829.7,5.00,0.00,30.5,29.2,00.0,39.2,32.4,10.9,0000.0,0003.63,0002.21,0001.77
2022-09-24 06:15:00,,0829.6,5.00,0.00,30.5,29.2,00.0,39.2,32.4,11.0,0000.0,0003.72,0002.26,0001.79
2022-09-24 06:16:00,,0829.6,5.01,0.00,30.5,29.1,00.0,39.2,32.4,11.0,0000.0,0004.10,0002.29,0001.80
2022-09-24 06:17:00,,0829.7,4.99,0.00,30.5,29.1,00.0,39.2,32.4,11.0,0000.0,0005.38,0002.39,0001.81
2022-09-24 06:18:00,,0829.6,4.99,0.00,30.5,29.1,00.0,39.2,32.4,11.0,0000.0,0005.61,0002.41,0001.82
2022-09-24 06:19:00,,0829.7,5.02,0.00,30.5,29.2,00.0,39.3,32.4,11.0,0000.0,0005.52,0002.39,0001.83
2022-09-24 06:20:00,,0829.7,5.00,0.00,30.6,29.2,00.0,39.3,32.4,11.0,0000.0,0005.62,0002.41,0001.84
2022-09-24 06:21:00,,0829.7,4.99,0.00,30.6,29.2,00.0,39.3,32.4,10.9,0000.0,0005.58,0002.39,0001.84
2022-09-24 06:22:00,,0829.7,5.00,0.00,30.6,29.3,00.0,39.3,32.4,10.8,0000.0,0005.53,0002.35,0001.84
2022-09-24 06:23:00,,0829.8,5.00,0.00,30.6,29.3,00.0,39.3,32.5,10.6,0000.0,0005.60,0002.38,0001.84
2022-09-24 06:24:00,,0829.8,5.01,0.00,30.6,29.3,00.0,39.3,32.5,10.7,0000.0,0005.64,0002.38,0001.82
2022-09-24 06:25:00,,0829.8,4.99,0.00,30.6,29.3,00.0,39.3,32.5,10.7,0000.0,0005.54,0002.38,0001.81
2022-09-24 06:26:00,,0829.8,5.00,0.00,30.6,29.3,00.0,39.4,32.5,10.7,0000.0,0005.51,0002.37,0001.80
2022-09-24 06:27:00,,0829.8,5.00,0.00,30.7,29.3,00.0,39.4,32.5,10.7,0000.0,0005.57,0002.37,0001.77
2022-09-24 06:28:00,,0829.9,5.00,0.00,30.7,29.4,00.0,39.4,32.5,10.7,0000.0,0004.24,0002.32,0001.76
2022-09-24 06:29:00,,0829.8,5.01,0.00,30.7,29.4,00.0,39.4,32.5,10.8,0000.0,0004.46,0002.37,0001.76
2022-09-24 06:30:00,,0829.8,4.99,0.00,30.7,29.3,00.0,39.4,32.5,10.9,0000.0,0004.44,0002.38,0001.74
2022-09-24 06:31:00,,0829.8,5.01,0.00,30.7,29.3,00.0,39.4,32.5,10.8,0000.0,0004.48,0002.39,0001.74
2022-09-24 06:32:00,,0829.8,4.99,0.00,30.7,29.3,00.0,39.4,32.6,10.9,0000.0,0004.57,0002.43,0001.74
2022-09-24 06:33:00,,0829.8,5.01,0.00,30.7,29.3,00.0,39.4,32.5,10.9,0000.0,0004.59,0002.47,0001.76
2022-09-24 06:34:00,,0829.8,5.00,0.00,30.7,29.3,00.0,39.4,32.5,10.7,0000.0,0004.56,0002.48,0001.76
2022-09-24 06:35:00,,0829.8,5.00,0.00,30.7,29.2,00.0,39.5,32.5,10.8,0000.0,0004.51,0002.47,0001.76
2022-09-24 06:36:00,,0829.8,5.00,0.00,30.7,29.1,00.0,39.4,32.5,10.9,0000.0,0004.73,0002.44,0001.76
2022-09-24 06:37:00,,0829.8,4.99,0.00,30.7,29.2,00.0,39.4,32.5,10.9,0000.0,0005.36,0002.42,0001.75
2022-09-24 06:38:00,,0829.8,5.01,0.00,30.7,29.2,00.0,39.5,32.5,10.9,0000.0,0005.23,0002.39,0001.75
2022-09-24 06:39:00,,0829.8,4.99,0.00,30.7,29.3,00.0,39.5,32.5,10.9,0000.0,0005.23,0002.41,0001.75
2022-09-24 06:40:00,,0829.8,5.01,0.00,30.7,29.3,00.0,39.5,32.5,10.9,0000.0,0004.81,0002.34,0001.75
2022-09-24 06:41:00,,0829.9,4.99,0.00,30.7,29.3,00.0,39.5,32.6,10.9,0000.0,0005.42,0002.37,0001.75
2022-09-24 06:42:00,,0829.8,5.01,0.00,30.7,29.3,00.0,39.5,32.6,11.0,0000.0,0005.31,0002.32,0001.74
2022-09-24 06:43:00,,0829.9,4.99,0.00,30.8,29.4,00.0,39.5,32.6,11.1,0000.0,0005.47,0002.30,0001.73
2022-09-24 06:44:00,,0829.9,5.01,0.00,30.8,29.0,00.0,39.5,32.6,11.0,0000.0,0005.79,0002.28,0001.71
2022-09-24 06:45:00,,0829.8,5.00,0.00,30.7,27.4,00.0,39.4,32.4,10.9,0000.0,0005.68,0002.25,0001.72
2022-09-24 06:46:00,,0829.8,5.00,0.00,30.7,26.9,00.0,39.4,32.3,11.0,0000.0,0005.70,0002.26,0001.72
2022-09-24 06:47:00,,0829.8,5.00,0.00,30.6,27.1,00.0,39.3,32.2,11.1,0000.0,0005.35,0002.24,0001.72
2022-09-24 06:48:00,,0829.8,5.00,0.00,30.5,27.4,00.0,39.3,32.1,11.1,0000.0,0004.77,0002.24,0001.73
2022-09-24 06:49:00,,0829.8,5.00,0.00,30.4,27.7,00.0,39.2,32.1,11.1,0000.0,0004.84,0002.27,0001.74
2022-09-24 06:50:00,,0829.8,5.00,0.00,30.4,27.9,00.0,39.2,32.1,11.2,0000.0,0004.69,0002.24,0001.75
2022-09-24 06:51:00,,0829.8,4.98,0.00,30.4,28.1,00.0,39.2,32.1,11.2,0000.0,0004.66,0002.25,0001.76
2022-09-24 06:52:00,,0829.8,5.01,0.00,30.4,28.3,00.0,39.2,32.1,11.1,0000.0,0004.02,0002.24,0001.76
2022-09-24 06:53:00,,0829.8,5.00,0.00,30.4,28.5,00.0,39.2,32.1,11.0,0000.0,0003.97,0002.24,0001.75
2022-09-24 06:54:00,,0829.8,5.00,0.00,30.4,28.6,00.0,39.2,32.1,11.1,0000.0,0003.98,0002.25,0001.76
2022-09-24 06:55:00,,0829.9,5.00,0.00,30.4,28.6,00.0,39.2,32.1,11.1,0000.0,0003.86,0002.27,0001.77
2022-09-24 06:56:00,,0829.8,5.00,0.00,30.3,28.7,00.0,39.1,32.1,11.1,0000.0,0005.43,0002.30,0001.78
2022-09-24 06:57:00,,0829.9,4.99,0.00,30.4,28.8,00.0,39.1,32.1,11.1,0000.0,0006.17,0002.35,0001.79
2022-09-24 06:58:00,,0829.9,5.02,0.00,30.4,28.8,00.0,39.1,32.2,11.1,0000.0,0006.32,0002.40,0001.80
2022-09-24 06:59:00,,0829.9,4.99,0.00,30.4,28.9,00.0,39.1,32.2,11.1,0000.0,0006.39,0002.39,0001.81
